K1TTC Weather Reports


time (UTC)temp
F
wind
direction
speed
knots
gust
knots
rain 1hr
in
rain 24hr
in
rain mn
in
humidity
%
barometer
mb
20260505024244 60 204 4.3 8.7 0.00 0.00 0.00 45 1011.2
20260505023242 60 191 4.3 10.4 0.00 0.00 0.00 44 1011.1
20260505022244 61 172 3.5 7.8 0.00 0.00 0.00 43 1011.0
20260505021243 61 232 4.3 9.6 0.00 0.00 0.00 43 1011.2
20260505020249 62 180 4.3 10.4 0.00 0.00 0.00 42 1011.1
20260505015245 62 168 3.5 7.8 0.00 0.00 0.00 42 1011.0
20260505014246 62 170 4.3 12.2 0.00 0.00 0.00 41 1011.0
20260505013243 63 220 6.1 13.9 0.00 0.00 0.00 41 1010.8
20260505012250 63 207 4.3 12.2 0.00 0.00 0.00 40 1010.7
20260505011243 63 191 6.1 13.0 0.00 0.00 0.00 40 1010.6
20260505010244 64 174 5.2 13.0 0.00 0.00 0.00 39 1010.5
20260505005244 64 191 5.2 13.0 0.00 0.00 0.00 38 1010.4
20260505004242 65 213 6.1 14.8 0.00 0.00 0.00 38 1010.1
20260505003243 65 154 5.2 12.2 0.00 0.00 0.00 37 1009.7
20260505002243 65 230 6.1 14.8 0.00 0.00 0.00 36 1009.4
20260505001243 66 213 7.0 15.6 0.00 0.00 0.00 35 1009.0
20260505000243 67 170 6.1 18.2 0.00 0.00 0.00 34 1008.8
20260504235243 68 162 7.8 15.6 0.00 0.00 0.00 32 1008.6
20260504234243 69 198 4.3 17.4 0.00 0.00 0.00 30 1008.5
20260504233242 70 216 4.3 9.6 0.00 0.00 0.00 27 1008.2
20260504232238 70 217 2.6 7.8 0.00 0.00 0.00 27 1008.0
20260504231241 71 217 2.6 6.1 0.00 0.00 0.00 26 1008.0
20260504230239 71 245 4.3 10.4 0.00 0.00 0.00 26 1007.8
20260504225329 71 305 2.6 7.8 0.00 0.00 0.00 26 1007.8
20260504224442 71 265 4.3 9.6 0.00 0.00 0.00 25 1007.7
20260504223238 72 265 5.2 10.4 0.00 0.00 0.00 24 1007.6
20260504222236 72 253 6.1 14.8 0.00 0.00 0.00 25 1007.6
20260504221236 72 191 5.2 13.9 0.00 0.00 0.00 25 1007.6
20260504220235 72 223 3.5 9.6 0.00 0.00 0.00 25 1007.6
20260504215236 72 278 5.2 16.5 0.00 0.00 0.00 25 1007.7
20260504214234 73 255 4.3 11.3 0.00 0.00 0.00 24 1007.8
20260504213234 73 281 3.5 9.6 0.00 0.00 0.00 24 1007.8
20260504212233 73 216 4.3 15.6 0.00 0.00 0.00 24 1007.7
20260504211233 73 246 5.2 13.0 0.00 0.00 0.00 24 1007.8
20260504210232 73 257 5.2 11.3 0.00 0.00 0.00 23 1007.7
20260504205233 73 203 5.2 11.3 0.00 0.00 0.00 24 1007.8
20260504204230 72 265 6.1 13.9 0.00 0.00 0.00 24 1007.7
20260504203230 73 271 7.0 14.8 0.00 0.00 0.00 23 1007.8
20260504202230 73 276 6.1 13.0 0.00 0.00 0.00 24 1007.8
20260504201231 73 232 6.1 15.6 0.00 0.00 0.00 23 1007.7
20260504200229 73 236 7.8 21.7 0.00 0.00 0.00 22 1007.7
20260504195230 74 226 6.1 13.9 0.00 0.00 0.00 22 1007.8
20260504194230 74 239 6.1 13.0 0.00 0.00 0.00 23 1007.8
20260504193229 73 240 7.8 15.6 0.00 0.00 0.00 22 1007.7
20260504192231 73 211 6.1 15.6 0.00 0.00 0.00 21 1007.8
20260504191230 73 259 7.0 18.2 0.00 0.00 0.00 21 1007.7
20260504190230 73 227 7.0 17.4 0.00 0.00 0.00 22 1007.8
20260504185228 73 229 6.1 13.0 0.00 0.00 0.00 22 1008.0
20260504184229 72 265 5.2 15.6 0.00 0.00 0.00 22 1008.2
20260504183227 73 154 6.1 18.2 0.00 0.00 0.00 22 1008.3
20260504182228 72 233 7.8 20.9 0.00 0.00 0.00 22 1008.3
20260504181228 73 192 7.0 20.0 0.00 0.00 0.00 22 1008.1
20260504180229 72 234 7.0 19.1 0.00 0.00 0.00 22 1008.2
20260504175225 73 262 6.1 14.8 0.00 0.00 0.00 24 1008.3
20260504174334 72 170 5.2 12.2 0.00 0.00 0.00 24 1008.2
20260504173224 71 269 7.8 21.7 0.00 0.00 0.00 26 1008.5
20260504172225 71 235 7.0 18.2 0.00 0.00 0.00 25 1008.5
20260504171224 71 214 7.0 20.9 0.00 0.00 0.00 25 1008.7
20260504170226 70 266 7.8 17.4 0.00 0.00 0.00 25 1008.7
20260504160224 69 219 7.8 16.5 0.00 0.00 0.00 26 1009.1
20260504150224 66 245 7.0 17.4 0.00 0.00 0.00 31 1009.9
20260504141223 63 271 6.1 13.9 0.00 0.00 0.00 34 1010.5
20260504140220 62 201 7.0 16.5 0.00 0.00 0.00 36 1010.6
20260504130213 59 259 4.3 12.2 0.00 0.00 0.00 39 1011.2
20260504120203 51 213 3.5 10.4 0.00 0.00 0.00 49 1011.7
20260504110203 46 203 0.0 0.0 0.00 0.00 0.00 55 1011.8
20260504100157 45 203 0.0 0.0 0.00 0.00 0.00 54 1011.7
20260504080409 44 214 0.9 2.6 0.00 0.00 0.00 56 1011.6
20260504050143 36 284 0.0 1.7 0.00 0.00 0.00 61 1011.6
20260504045143 36 284 0.0 0.0 0.00 0.00 0.00 61 1011.6
20260504044143 36 284 0.0 0.0 0.00 0.00 0.00 61 1011.6
20260504043143 37 284 0.0 0.0 0.00 0.00 0.00 60 1011.4
20260504042143 37 284 0.0 0.0 0.00 0.00 0.00 60 1011.4
20260504041140 37 284 0.0 0.0 0.00 0.00 0.00 59 1011.5
20260504040141 37 284 0.0 0.0 0.00 0.00 0.00 59 1011.3
20260504035134 38 284 0.0 0.0 0.00 0.00 0.00 58 1011.3
20260504034136 38 284 0.0 0.0 0.00 0.00 0.00 57 1011.3
20260504033136 38 284 0.0 0.0 0.00 0.00 0.00 57 1011.2
20260504032130 39 284 0.0 0.0 0.00 0.00 0.00 57 1011.2
20260504031132 39 284 0.0 0.0 0.00 0.00 0.00 56 1011.2
20260504030131 40 284 0.0 0.0 0.00 0.00 0.00 55 1011.2
20260504025130 40 284 0.0 0.0 0.00 0.00 0.00 55 1011.2